Main page
METAR-TAF:

METAR-TAF

Airports :

Carlos Prates Airport

Belo Horizonte, Minas Gerais, Brazil

latitude: 19-54-33S, longitude: 043-59-21W, elevation: 928 m

Current weather observation

The report was made 11 hours and 41 minutes ago, at 20:00 UTC
Wind 12 kt from the West/Northwest
Temperature 28°C
Humidity 45%
Pressure 1015 hPa
Visibility 10 km or more
Scattered clouds at a height of 3000 ft

METAR: SBPR 182000Z 29012KT 9999 SCT030 28/15 Q1015

Time: 04:41 (07:41 UTC)


TAF: missing

Weather observations and forecasts of more than 4000 airports (METAR and TAF reports).

The available stations are represented by yellow and red dots on the map.

Hover mouse over dot to see the name of the station.

Then click to see weather observations and forecasts.

To change the map : click on the green buttons with a black cross to zoom in, on the green button with a dash to zoom out, or on the green arrows for adjacent maps.


METAR-TAF: